When you browse on this site, cookies collect data to enhance your experience and personalize the content and advertising you see.
Visit our Privacy Policy to learn more. By continuing to use the site, you agree to this use of cookies and data.
  • In Schweiz
  • Länderverzeichnis
  • Für 7 Tage
  • Wassertemperatur
  • Wetterkarte
  • Widgets
  • user-avatar
    Anmelden

    Stündliche Wetter Sombathey

    Heute, 27 Mai, Mittwoch

    Zeit Temperatur Niederschläge Wind Luftdruck Luftfeuchtigkeit
    00:00 +9°C° 0 mm 5 m/S 754 mmHg 77%
    01:00 +9°C° 0 mm 5 m/S 754 mmHg 80%
    02:00 +9°C° 0 mm 5 m/S 754 mmHg 81%
    03:00 +8°C° 0 mm 5 m/S 754 mmHg 81%
    04:00 +8°C° 0 mm 5 m/S 754 mmHg 82%
    05:00 +9°C° 0 mm 6 m/S 754 mmHg 77%
    06:00 +11°C° 0 mm 6 m/S 754 mmHg 73%
    07:00 +12°C° 0 mm 7 m/S 753 mmHg 68%
    08:00 +14°C° 0 mm 7 m/S 753 mmHg 63%
    09:00 +16°C° 0 mm 7 m/S 753 mmHg 59%
    10:00 +17°C° 0 mm 7 m/S 753 mmHg 55%
    11:00 +17°C° 0 mm 7 m/S 753 mmHg 53%
    12:00 +18°C° 0 mm 7 m/S 752 mmHg 51%
    13:00 +20°C° 0 mm 7 m/S 752 mmHg 49%
    14:00 +20°C° 0 mm 6 m/S 752 mmHg 49%
    15:00 +20°C° 0 mm 6 m/S 751 mmHg 50%
    16:00 +20°C° 0 mm 6 m/S 751 mmHg 50%
    17:00 +19°C° 0 mm 5 m/S 751 mmHg 57%
    18:00 +17°C° 0 mm 4 m/S 751 mmHg 64%
    19:00 +16°C° 0 mm 3 m/S 751 mmHg 71%
    20:00 +14°C° 0 mm 3 m/S 751 mmHg 72%
    21:00 +13°C° 0 mm 3 m/S 751 mmHg 74%
    22:00 +12°C° 0 mm 3 m/S 751 mmHg 75%
    23:00 +12°C° 0 mm 3 m/S 751 mmHg 76%

    Morgen, 28 Mai, Donnerstag

    Zeit Temperatur Niederschläge Wind Luftdruck Luftfeuchtigkeit
    00:00 +11°C° 0 mm 3 m/S 751 mmHg 78%
    01:00 +11°C° 0 mm 3 m/S 751 mmHg 79%
    02:00 +10°C° 0 mm 3 m/S 751 mmHg 79%
    03:00 +10°C° 0 mm 3 m/S 750 mmHg 80%
    04:00 +10°C° 0 mm 2 m/S 750 mmHg 80%
    05:00 +11°C° 0 mm 3 m/S 750 mmHg 75%
    06:00 +13°C° 0 mm 3 m/S 749 mmHg 70%
    07:00 +16°C° 0 mm 3 m/S 749 mmHg 66%
    08:00 +17°C° 0.1 mm 3 m/S 749 mmHg 64%
    09:00 +18°C° 0.1 mm 3 m/S 749 mmHg 62%
    10:00 +19°C° 0.1 mm 3 m/S 748 mmHg 60%
    11:00 +18°C° 0.4 mm 4 m/S 748 mmHg 63%
    12:00 +17°C° 0.4 mm 5 m/S 748 mmHg 66%
    13:00 +17°C° 0.4 mm 6 m/S 747 mmHg 69%
    14:00 +16°C° 0.2 mm 7 m/S 747 mmHg 69%
    15:00 +15°C° 0.2 mm 7 m/S 747 mmHg 69%
    16:00 +15°C° 0.2 mm 8 m/S 747 mmHg 69%
    17:00 +14°C° 0 mm 7 m/S 747 mmHg 70%
    18:00 +12°C° 0 mm 7 m/S 747 mmHg 71%
    19:00 +11°C° 0 mm 6 m/S 747 mmHg 73%
    20:00 +10°C° 0 mm 6 m/S 747 mmHg 74%
    21:00 +9°C° 0 mm 5 m/S 748 mmHg 75%
    22:00 +9°C° 0 mm 5 m/S 748 mmHg 76%
    23:00 +9°C° 0.1 mm 5 m/S 748 mmHg 78%

    übermorgen, 29 Mai, Freitag

    Zeit Temperatur Niederschläge Wind Luftdruck Luftfeuchtigkeit
    00:00 +9°C° 0.1 mm 5 m/S 747 mmHg 80%
    01:00 +9°C° 0.1 mm 5 m/S 747 mmHg 83%
    02:00 +9°C° 0.2 mm 5 m/S 747 mmHg 84%
    03:00 +9°C° 0.2 mm 5 m/S 747 mmHg 85%
    04:00 +9°C° 0.2 mm 5 m/S 747 mmHg 86%
    05:00 +9°C° 0.2 mm 5 m/S 747 mmHg 87%
    06:00 +9°C° 0.2 mm 5 m/S 747 mmHg 87%
    07:00 +9°C° 0.2 mm 5 m/S 747 mmHg 88%
    08:00 +12°C° 0 mm 5 m/S 747 mmHg 82%
    09:00 +13°C° 0 mm 6 m/S 747 mmHg 75%
    10:00 +15°C° 0 mm 7 m/S 747 mmHg 69%
    11:00 +16°C° 0 mm 7 m/S 747 mmHg 65%
    12:00 +16°C° 0 mm 7 m/S 746 mmHg 60%
    13:00 +17°C° 0 mm 7 m/S 746 mmHg 56%
    14:00 +17°C° 0 mm 7 m/S 746 mmHg 57%
    15:00 +17°C° 0 mm 6 m/S 745 mmHg 57%
    16:00 +17°C° 0 mm 6 m/S 745 mmHg 58%
    17:00 +16°C° 0 mm 6 m/S 745 mmHg 63%
    18:00 +15°C° 0 mm 5 m/S 745 mmHg 68%
    19:00 +14°C° 0 mm 4 m/S 745 mmHg 73%
    20:00 +13°C° 0 mm 4 m/S 745 mmHg 76%
    21:00 +12°C° 0 mm 4 m/S 745 mmHg 78%
    22:00 +11°C° 0 mm 4 m/S 745 mmHg 80%
    23:00 +10°C° 0 mm 5 m/S 745 mmHg 79%

    30 Mai, Samstag

    Zeit Temperatur Niederschläge Wind Luftdruck Luftfeuchtigkeit
    00:00 +10°C° 0 mm 5 m/S 745 mmHg 78%
    01:00 +9°C° 0 mm 5 m/S 745 mmHg 76%
    02:00 +9°C° 0 mm 5 m/S 745 mmHg 75%
    03:00 +8°C° 0 mm 5 m/S 745 mmHg 75%
    04:00 +8°C° 0 mm 5 m/S 745 mmHg 74%
    05:00 +9°C° 0 mm 6 m/S 745 mmHg 70%
    06:00 +10°C° 0 mm 6 m/S 745 mmHg 66%
    07:00 +11°C° 0 mm 6 m/S 745 mmHg 63%
    08:00 +12°C° 0 mm 7 m/S 745 mmHg 58%
    09:00 +14°C° 0 mm 7 m/S 745 mmHg 54%
    10:00 +15°C° 0 mm 7 m/S 745 mmHg 50%
    11:00 +15°C° 0 mm 7 m/S 745 mmHg 49%
    12:00 +16°C° 0 mm 7 m/S 745 mmHg 47%
    13:00 +16°C° 0 mm 7 m/S 744 mmHg 46%
    14:00 +16°C° 0 mm 6 m/S 744 mmHg 46%
    15:00 +16°C° 0 mm 6 m/S 744 mmHg 47%
    16:00 +16°C° 0 mm 6 m/S 744 mmHg 47%
    17:00 +15°C° 0 mm 5 m/S 744 mmHg 53%
    18:00 +14°C° 0 mm 4 m/S 744 mmHg 59%
    19:00 +13°C° 0 mm 3 m/S 744 mmHg 65%
    20:00 +12°C° 0 mm 3 m/S 744 mmHg 67%
    21:00 +11°C° 0 mm 3 m/S 744 mmHg 69%
    22:00 +10°C° 0 mm 3 m/S 745 mmHg 70%
    23:00 +9°C° 0 mm 3 m/S 744 mmHg 72%

    31 Mai, Sonntag

    Zeit Temperatur Niederschläge Wind Luftdruck Luftfeuchtigkeit
    00:00 +9°C° 0 mm 3 m/S 744 mmHg 73%
    01:00 +8°C° 0 mm 3 m/S 744 mmHg 74%
    02:00 +8°C° 0 mm 3 m/S 744 mmHg 75%
    03:00 +8°C° 0 mm 2 m/S 744 mmHg 76%
    04:00 +8°C° 0 mm 2 m/S 744 mmHg 77%
    05:00 +10°C° 0 mm 3 m/S 744 mmHg 72%
    06:00 +12°C° 0 mm 3 m/S 744 mmHg 68%
    07:00 +14°C° 0 mm 3 m/S 744 mmHg 63%
    08:00 +16°C° 0 mm 3 m/S 744 mmHg 59%
    09:00 +17°C° 0 mm 4 m/S 744 mmHg 56%
    10:00 +18°C° 0 mm 4 m/S 744 mmHg 52%
    11:00 +19°C° 0 mm 4 m/S 743 mmHg 51%
    12:00 +19°C° 0 mm 3 m/S 743 mmHg 49%
    13:00 +20°C° 0 mm 3 m/S 743 mmHg 47%
    14:00 +20°C° 0 mm 3 m/S 743 mmHg 48%
    15:00 +20°C° 0 mm 4 m/S 742 mmHg 50%
    16:00 +19°C° 0 mm 4 m/S 742 mmHg 51%
    17:00 +18°C° 0 mm 4 m/S 742 mmHg 58%
    18:00 +17°C° 0 mm 4 m/S 742 mmHg 65%
    19:00 +15°C° 0 mm 4 m/S 742 mmHg 72%
    20:00 +14°C° 0 mm 4 m/S 742 mmHg 74%
    21:00 +14°C° 0 mm 4 m/S 742 mmHg 75%
    22:00 +13°C° 0 mm 4 m/S 742 mmHg 76%
    23:00 +13°C° 0.1 mm 4 m/S 742 mmHg 79%

    1 Juni, Montag

    Zeit Temperatur Niederschläge Wind Luftdruck Luftfeuchtigkeit
    00:00 +13°C° 0.1 mm 4 m/S 742 mmHg 82%
    01:00 +12°C° 0.1 mm 3 m/S 742 mmHg 84%
    02:00 +12°C° 0.6 mm 3 m/S 742 mmHg 87%
    03:00 +12°C° 0.6 mm 4 m/S 741 mmHg 90%
    04:00 +12°C° 0.6 mm 4 m/S 741 mmHg 93%
    05:00 +12°C° 0.3 mm 4 m/S 741 mmHg 92%
    06:00 +13°C° 0.3 mm 4 m/S 741 mmHg 92%
    07:00 +13°C° 0.3 mm 5 m/S 742 mmHg 91%
    08:00 +14°C° 0 mm 5 m/S 742 mmHg 87%
    09:00 +15°C° 0 mm 6 m/S 742 mmHg 83%
    10:00 +16°C° 0 mm 6 m/S 742 mmHg 80%
    11:00 +18°C° 0 mm 7 m/S 742 mmHg 75%
    12:00 +20°C° 0 mm 7 m/S 742 mmHg 70%
    13:00 +21°C° 0 mm 7 m/S 742 mmHg 65%
    14:00 +21°C° 0.3 mm 7 m/S 741 mmHg 66%
    15:00 +21°C° 0.3 mm 7 m/S 741 mmHg 66%
    16:00 +21°C° 0.3 mm 7 m/S 741 mmHg 67%
    17:00 +20°C° 0.3 mm 6 m/S 741 mmHg 71%
    18:00 +19°C° 0.3 mm 6 m/S 741 mmHg 76%
    19:00 +17°C° 0.3 mm 5 m/S 741 mmHg 80%
    20:00 +17°C° 0.1 mm 4 m/S 741 mmHg 82%
    21:00 +15°C° 0.1 mm 4 m/S 742 mmHg 85%
    22:00 +14°C° 0.1 mm 3 m/S 742 mmHg 87%
    23:00 +14°C° 0.1 mm 3 m/S 742 mmHg 89%
    Mehr zeigen